Weather History for EGLL - June, 2013

Change the Weather History Date:

Wednesday, June 12, 2013

  Actual Average Record
Temperature  
Mean Temperature 60 °F -  
Max Temperature 64 °F 69 °F 87 °F (2006)
Min Temperature 56 °F 53 °F 42 °F (1998)
Degree Days  
Heating Degree Days 5    
Growing Degree Days 10 (Base 50)    
Moisture  
Dew Point 56 °F    
Average Humidity 85    
Maximum Humidity 94    
Minimum Humidity 65    
Precipitation  
Precipitation 0.03 in - - ()
Sea Level Pressure  
Sea Level Pressure 29.86 in    
Wind  
Wind Speed 12 mph ()    
Max Wind Speed 22 mph    
Max Gust Speed 32 mph    
Visibility 6.7 miles    
Events Rain    
Averages and records for this station are not official NWS values.
T = Trace of Precipitation, MM = Missing Value Source: Averaged Metar Reports

Daily Weather History Graph

Daily Weather History Graph

Search for Another Location

Airport or City:

Trip Planner

Search our weather history database for the weather conditions in past years. The results will help you decide how hot, cold, wet, or windy it might be!

Date:

Astronomy

Jun. 12, 2013 Rise Set
Actual Time 4:44 AM BST 9:19 PM BST
Civil Twilight 3:57 AM BST 10:06 PM BST
Nautical Twilight 2:44 AM BST 11:19 PM BST
Astronomical Twilight 1:34 AM BST 12:29 AM BST
Moon 8:30 AM BST (6/12) 11:22 PM BST (6/12)
Length of Visible Light 18h 08m
Length of Day
16h 34m
Waxing Crescent, 13% of the Moon is Illuminated
Jun 12
Waxing Crescent
Jun 16
First Quarter
Jun 23
Full
Jun 30
Last Quarter
Jul 8
New

Hourly Weather History & Observations

Time (BST) Temp. Dew Point Humidity Pressure Visibility Wind Dir Wind Speed Gust Speed Precip Events Conditions
12:20 AM 57.2 °F 51.8 °F 82% 29.89 in 6.2 mi South 8.1 mph - N/A   Mostly Cloudy
12:50 AM 57 °F 52 °F 76% 29.90 in 18 mi South 5.8 mph - -   Mostly Cloudy
12:50 AM 57.2 °F 51.8 °F 82% 29.89 in 6.2 mi South 4.6 mph - N/A   Mostly Cloudy
1:20 AM 57.2 °F 53.6 °F 88% 29.89 in 6.2 mi South 4.6 mph - N/A   Mostly Cloudy
1:50 AM 57.2 °F 53.6 °F 88% 29.89 in 6.2 mi South 5.8 mph - N/A   Mostly Cloudy
2:20 AM 59.0 °F 55.4 °F 88% 29.86 in 6.2 mi South 10.4 mph - N/A   Mostly Cloudy
2:50 AM 59.0 °F 55.4 °F 88% 29.86 in 6.2 mi SSW 10.4 mph - N/A   Mostly Cloudy
3:20 AM 59.0 °F 57.2 °F 94% 29.86 in 5.0 mi SSW 11.5 mph - N/A   Overcast
3:50 AM 58 °F 57 °F 94% 29.85 in 10 mi South 10.4 mph - - Rain Light Drizzle
3:50 AM 59.0 °F 57.2 °F 94% 29.86 in 6.2 mi South 10.4 mph - N/A   Mostly Cloudy
4:20 AM 59.0 °F 57.2 °F 94% 29.86 in 6.2 mi SSW 12.7 mph - N/A   Mostly Cloudy
4:50 AM 59.0 °F 57.2 °F 94% 29.83 in 6.2 mi SSW 12.7 mph - N/A   Mostly Cloudy
5:20 AM 59.0 °F 55.4 °F 88% 29.83 in 6.2 mi SSW 13.8 mph 26.5 mph N/A   Mostly Cloudy
5:50 AM 59.0 °F 55.4 °F 88% 29.83 in 6.2 mi SSW 15.0 mph - N/A   Mostly Cloudy
6:20 AM 59.0 °F 53.6 °F 82% 29.83 in 6.2 mi SW 17.3 mph - N/A   Mostly Cloudy
6:50 AM 59 °F 54 °F 77% 29.86 in 25 mi SSW 17.3 mph - - Rain Light Rain Showers
6:50 AM 59.0 °F 55.4 °F 88% 29.86 in 6.2 mi SW 12.7 mph - N/A   Mostly Cloudy
7:20 AM 59.0 °F 53.6 °F 82% 29.86 in 6.2 mi SW 15.0 mph - N/A   Mostly Cloudy
7:50 AM 59.0 °F 53.6 °F 82% 29.86 in 6.2 mi SW 16.1 mph - N/A   Mostly Cloudy
8:20 AM 59.0 °F 53.6 °F 82% 29.86 in 6.2 mi SW 15.0 mph - N/A   Mostly Cloudy
8:50 AM 59.0 °F 53.6 °F 82% 29.89 in 6.2 mi SW 19.6 mph - N/A   Mostly Cloudy
9:20 AM 60.8 °F 53.6 °F 77% 29.86 in 6.2 mi SW 13.8 mph - N/A   Mostly Cloudy
9:50 AM 62 °F 53 °F 65% 29.89 in 22 mi SW 16.1 mph - -   Mostly Cloudy
9:50 AM 62.6 °F 53.6 °F 72% 29.89 in 6.2 mi WSW 18.4 mph - N/A   Mostly Cloudy
10:20 AM 60.8 °F 53.6 °F 77% 29.89 in 6.2 mi SW 18.4 mph - N/A   Scattered Clouds
10:50 AM 62.6 °F 53.6 °F 72% 29.89 in 6.2 mi SW 19.6 mph 31.1 mph N/A   Mostly Cloudy
11:20 AM 62.6 °F 53.6 °F 72% 29.89 in 6.2 mi SW 21.9 mph - N/A   Mostly Cloudy
11:50 AM 62.6 °F 53.6 °F 72% 29.89 in 6.2 mi SW 20.7 mph - N/A   Mostly Cloudy
12:20 PM 62.6 °F 53.6 °F 72% 29.89 in 6.2 mi SW 18.4 mph - N/A   Mostly Cloudy
12:50 PM 61 °F 54 °F 73% 29.91 in 6 mi SSW 16.1 mph - - Rain Light Rain Showers
12:50 PM 60.8 °F 55.4 °F 82% 29.89 in 5.0 mi SW 17.3 mph 32.2 mph N/A Rain Light Rain
1:20 PM 60.8 °F 55.4 °F 82% 29.92 in 6.2 mi SW 15.0 mph - N/A   Mostly Cloudy
1:50 PM 62.6 °F 55.4 °F 77% 29.89 in 6.2 mi SSW 13.8 mph - N/A   Mostly Cloudy
2:20 PM 60.8 °F 55.4 °F 82% 29.89 in 6.2 mi SW 13.8 mph - N/A   Mostly Cloudy
2:50 PM 60.8 °F 57.2 °F 88% 29.89 in 6.2 mi SSW 13.8 mph - N/A   Mostly Cloudy
3:20 PM 62.6 °F 57.2 °F 82% 29.86 in 6.2 mi SSW 13.8 mph - N/A   Mostly Cloudy
3:50 PM 62 °F 57 °F 79% 29.86 in 28 mi SSW 13.8 mph - - Rain Light Rain
3:50 PM 62.6 °F 57.2 °F 82% 29.86 in 6.2 mi SSW 12.7 mph - N/A   Mostly Cloudy
4:20 PM 62.6 °F 59.0 °F 88% 29.86 in 6.2 mi SSW 13.8 mph - N/A   Mostly Cloudy
4:50 PM 62.6 °F 59.0 °F 88% 29.83 in 6.2 mi SSW 15.0 mph - N/A   Mostly Cloudy
5:20 PM 62.6 °F 59.0 °F 88% 29.83 in 5.0 mi SSW 15.0 mph - N/A Rain Light Rain
5:50 PM 62.6 °F 59.0 °F 88% 29.83 in 6.2 mi SSW 15.0 mph - N/A Rain Light Rain
6:20 PM 62.6 °F 59.0 °F 88% 29.83 in 6.2 mi SW 16.1 mph - N/A Rain Light Rain
6:50 PM 62 °F 59 °F 86% 29.83 in 11 mi SSW 16.1 mph - - Rain Rain Showers
6:50 PM 62.6 °F 59.0 °F 88% 29.83 in 6.2 mi SSW 15.0 mph - N/A Rain Light Rain
7:20 PM 60.8 °F 59.0 °F 94% 29.83 in 6.2 mi SW 15.0 mph - N/A Rain Light Rain
7:50 PM 60.8 °F 59.0 °F 94% 29.83 in 6.2 mi SW 16.1 mph - N/A Rain Light Rain
8:20 PM 60.8 °F 59.0 °F 94% 29.83 in 6.2 mi SSW 15.0 mph - N/A   Mostly Cloudy
8:50 PM 60.8 °F 59.0 °F 94% 29.80 in 6.2 mi SSW 16.1 mph - N/A   Mostly Cloudy
9:20 PM 60.8 °F 59.0 °F 94% 29.80 in 6.2 mi SW 16.1 mph - N/A   Mostly Cloudy
9:50 PM 60 °F 57 °F 87% 29.83 in 18 mi SSW 19.6 mph - - Rain Rain
9:50 PM 60.8 °F 57.2 °F 88% 29.83 in 6.2 mi SW 16.1 mph - N/A Rain Light Rain
10:20 PM 59.0 °F 57.2 °F 94% 29.83 in 6.2 mi SW 18.4 mph - N/A   Scattered Clouds
10:50 PM 59.0 °F 55.4 °F 88% 29.83 in 6.2 mi SW 15.0 mph - N/A   Scattered Clouds
11:20 PM 59.0 °F 57.2 °F 94% 29.83 in 4.3 mi SSW 12.7 mph - N/A Rain Light Rain
11:50 PM 59.0 °F 55.4 °F 88% 29.83 in 6.2 mi SW 15.0 mph - N/A   Scattered Clouds